Portada
METAR-TAF:

METAR-TAF

Aeroports :

Okmulgee, Oklahoma, Estats Units d'Amèrica

latitud: 35-40-05N, longitud: 095-56-55W, altitud: 220 m

Observació

L'informe es va fer fa 25 minuts, a les 22:55 UTC
Vent 9 kt del Sud-Est amb ràfegues de 15 kt
Temperatura 28°C
Humitat 70%
Pressió 1008 hPa
Visibilitat: 16.1 km
Cel clar

METAR: KOKM 242255Z AUTO 14009G15KT 10SM CLR 28/22 A2978 RMK AO2 T02760223

Hora: 18:20 (23:20 UTC)


TAF: manca

Observacions i pronòstics meteorològics de més de 4000 aeroports (METAR i TAF).

Les estacions disponibles són els punts grocs i vermells al mapa.

Posi el ratolí al punt desitjat per veure el nom de l'estació.

Feu clic per veure les observacions i els pronòstics meteorològics.

Per canviar el mapa: feu clic els botons verds amb una creu de color negre per apropar; al botó verd amb un guió per allunyar la imatge; o en les fletxes verdes per a mapes adjacents.


METAR-TAF: